Regional Weather Roundup
Issued by NWS

Home | Current Version | Previous Version | Graphics & Text | Print | Product List | Glossary Off
Versions: 1 2 3 4 5 6 7 8 9 10 11 12 13 14 15 16 17 18 19 20 21 22 23 24 25 26 27 28 29 30 31 32 33 34 35 36 37 38 39 40 41 42 43 44 45 46 47 48 49 50

000
ASUS43 KMKX 030521
RWRWI

WISCONSIN REGIONAL WEATHER ROUNDUP
NATIONAL WEATHER SERVICE MILWAUKEE/SULLIVAN WI
1200 AM CDT TUE MAY 03 2016

NOTE: "FAIR" INDICATES FEW OR NO CLOUDS BELOW 12,000 FEET WITH NO
SIGNIFICANT WEATHER AND/OR OBSTRUCTIONS TO VISIBILITY.

WIZ001-002-006>008-014>016-023>028-030600-
NORTHWEST WISCONSIN

CITY           SKY/WX    TMP DP  RH WIND       PRES   REMARKS
SUPERIOR ARPT  CLEAR     32  31  97 CALM      29.96F
ASHLAND        CLEAR     38  37  97 CALM      29.94F
HAYWARD        CLEAR     41  34  76 CALM      29.97F
SIREN          CLEAR     46  34  63 SW3       29.97F
CUMBERLAND     CLEAR     46  34  61 CALM      29.98F
RICE LAKE      CLEAR     46  40  78 CALM      30.00S
CHETEK         CLEAR     43  37  78 CALM      29.98F
LADYSMITH      CLEAR     41  37  83 N5        30.00S
EAU CLAIRE     CLEAR     44  36  73 CALM      29.98F
MENOMONIE      CLEAR     46  36  68 W3        29.99S
NEW RICHMOND   CLEAR     46  35  66 CALM      29.99F
OSCEOLA        CLEAR     44  38  79 CALM      30.01F
$$

WIZ003>005-009-010-017-018-030600-
NORTH CENTRAL WISCONSIN

CITY           SKY/WX    TMP DP  RH WIND       PRES   REMARKS
MANITOWISH WTR CLEAR     35  35 100 CALM      29.95F
ARBOR VITAE    CLEAR     39  33  77 CALM      29.96F
WOODRUFF       CLEAR     39  33  77 CALM      29.96F
RHINELANDER    CLEAR     39  31  72 W3        29.97F
EAGLE RIVER    CLEAR     37  31  81 CALM      29.95F
LAND O LAKES   CLEAR     33  32  95 CALM      29.96F
PHILLIPS       CLEAR     40  36  83 CALM      29.97F
TOMAHAWK       CLEAR     35  31  86 CALM      29.97F
MEDFORD        PTCLDY    45  36  70 CALM      29.98S
MERRILL        PTCLDY    39  36  87 CALM      29.98F
$$

WIZ029-030-035-036-043>047-030600-
CENTRAL WISCONSIN

CITY           SKY/WX    TMP DP  RH WIND       PRES   REMARKS
WAUSAU         PTCLDY    49  36  61 CALM      29.96F
MOSINEE        CLEAR     50  32  50 W5        29.99S
MARSHFIELD     PTCLDY    48  34  58 W6        29.97F
STEVENS POINT  PTCLDY    41  34  75 CALM      29.98S
WAUPACA        CLEAR     49  36  59 CALM      29.99S
WAUTOMA        CLEAR     43  35  73 CALM      29.99F
WISC RAPIDS    CLEAR     43  34  70 CALM      29.99F
CAMP DOUGLAS   PTCLDY    39  39 100 CALM      29.98F
$$

WIZ011>013-019>022-031-037>040-048>050-030600-
NORTHEAST WISCONSIN

CITY           SKY/WX    TMP DP  RH WIND       PRES   REMARKS
ANTIGO         CLEAR     41  35  80 CALM      29.97F
SHAWANO        CLEAR     52  37  56 CALM      29.97F
OCONTO         CLEAR     40  39  94 CALM      29.97F
STURGEON BAY   CLEAR     45  30  57 S3        30.00F
GREEN BAY      CLEAR     47  36  65 CALM      29.98F
MANITOWOC      CLEAR     42  35  76 MISG      29.99F
APPLETON       CLEAR     46  32  57 SW7       29.97S
CLINTONVILLE   CLEAR     46  36  66 S5        29.98S
OSHKOSH        CLEAR     49  35  58 SW7       29.98F
$$

WIZ032>034-041-042-053>061-030600-
SOUTHWEST WISCONSIN

CITY           SKY/WX    TMP DP  RH WIND       PRES   REMARKS
LA CROSSE      CLEAR     50  41  71 S5        30.00S
SPARTA         CLEAR     42  38  87 CALM      30.00F
VIROQUA        PTCLDY    52  35  52 W5        30.00F
BOSCOBEL       PTCLDY    45  40  82 SW3       30.01F
PRAIRIE DU CHI CLEAR     44  40  84 CALM      30.01F
PLATTEVILLE    CLEAR     49  38  65 W6        30.01F
$$

WIZ056-057-062-063-064-067-068-030600-
SOUTH CENTRAL WISCONSIN

CITY           SKY/WX    TMP DP  RH WIND       PRES   REMARKS
REEDSBURG      CLEAR     44  39  84 CALM      29.99S
BARABOO/DELLS  CLEAR     49  34  55 CALM      29.99F
LONE ROCK      PTCLDY    45  41  86 CALM      30.00F
MINERAL POINT  CLEAR     48  36  61 SW5       30.00F
MADISON        CLEAR     44  36  73 CALM      30.00F
MIDDLETON      CLEAR     42  39  90 CALM      30.00F
WATERTOWN      CLEAR     40  36  86 CALM      30.01S
MONROE         CLEAR     50  36  57 SW5       30.00F
JANESVILLE     PTCLDY    43  36  75 CALM      30.01S
$$

WIZ051-052-058>065-066-070>072-030600-
SOUTHEAST WISCONSIN

CITY           SKY/WX    TMP DP  RH WIND       PRES   REMARKS
MILWAUKEE      PTCLDY    44  34  67 CALM      30.00F
WAUKESHA       CLEAR     37  32  81 CALM      30.01F
MILWAUKEE/TIMM CLEAR     43  32  65 CALM      30.01F
RACINE         CLEAR     40  34  79 CALM      30.01F
BURLINGTON     CLEAR     37  35  91 CALM      30.01F
KENOSHA        CLEAR     40  34  79 W5        30.00F
FOND DU LAC    CLEAR     42  35  76 SW3       29.99F
SHEBOYGAN      CLEAR     43  35  73 SW5       29.99F
WEST BEND      CLEAR     39  34  81 CALM      30.00S
JUNEAU         CLEAR     45  35  68 S5        30.02S
$$

LSZ147-162-030600-
LAKE SUPERIOR

STATION/POSITION TIME  TEMP    WIND        PRES    WAVE
                       AIR SEA DIR/SP/G            HT/PER
                 (UTC) (F)     (DEG/KT/KT) (MB)    (FT/S)
W MID LAKE BUOY  0450   40 37  180/  6/  6 1013.8F   0
DEVILS ISLAND    0500   49     190/  8/  9 1013.7F
SAXON HARBOR     0440   41     200/  6/  7 1013.5F
$$

LMZ867-665-643>646-030600-
LAKE MICHIGAN

STATION/POSITION TIME  TEMP    WIND        PRES    WAVE
                       AIR SEA DIR/SP/G            HT/PER
                 (UTC) (F)     (DEG/KT/KT) (MB)    (FT/S)
CHAMBERS ISLAND  0400   41      CALM  /  1 1015.6F
N MID LAKE BUOY  0450   44 38  290/  2/  4 1015.0F   0
NORTHPORT PIER   0400   44      CALM  /  1 1015.2F
ALGOMA LAKESHORE 0415             CALM       N/A
KEWAUNEE LAKESHO 0500   44     290/  3/  4 1014.6F
SHEBOYGAN LAKESH 0500   48     250/  5/  7 1016.1F
PORT WASHINGTON  0440   46     270/  2/  5 1016.6F
S MID LAKE BUOY  0450   42 41  330/  4/  4 1015.7F   1
KENOSHA   LAKESH 0500   47     290/  6/  7 1015.9F
$$

TC  - TEMPERATURE IN CELSIUS
VSB - VISIBILITY IN STATUTE MILES
WCI - WIND CHILL INDEX
HX  - HEAT INDEX





USA.gov is the U.S. government's official web portal to all federal, state and local government web resources and services.